IPIPIL3 Weather Reports


Display with metric or nautical units.
time (UTC)temp
F
wind
direction
speed
MPH
gust
MPH
rain 1hr
in
rain 24hr
in
rain mn
in
humidity
%
barometer
mb
20260506163014 82 290 1.0 3.0 0.00 0.00 0.00 89 1008.4
20260506161503 82 65 1.0 5.0 0.00 0.00 0.00 89 1008.4
20260506160003 82 48 1.0 5.0 0.00 0.00 0.00 89 1008.3
20260506154503 82 118 1.0 4.0 0.00 0.00 0.00 89 1008.1
20260506153005 82 270 1.0 4.0 0.00 0.00 0.00 89 1008.2
20260506151507 82 262 1.0 6.0 0.00 0.00 0.00 89 1008.0
20260506150013 82 123 2.0 7.0 0.00 0.00 0.00 89 1007.9
20260506144503 82 284 1.0 4.0 0.00 0.00 0.00 89 1007.8
20260506143006 83 195 2.0 6.0 0.00 0.00 0.00 88 1007.6
20260506141503 83 51 2.0 5.0 0.00 0.00 0.00 88 1007.5
20260506140010 83 89 2.0 5.0 0.00 0.00 0.00 87 1007.2
20260506134503 83 41 2.0 5.0 0.00 0.00 0.00 87 1007.4
20260506133006 83 112 2.0 4.0 0.00 0.00 0.00 86 1006.7
20260506131507 83 198 1.0 7.0 0.00 0.00 0.00 85 1006.5
20260506130003 83 47 3.0 8.0 0.00 0.00 0.00 84 1006.2
20260506124503 84 157 3.0 8.0 0.00 0.00 0.00 83 1006.4
20260506123006 84 77 2.0 8.0 0.00 0.00 0.00 81 1006.2
20260506121503 85 83 3.0 8.0 0.00 0.00 0.00 80 1006.1
20260506120003 86 74 3.0 6.0 0.00 0.00 0.00 78 1005.9
20260506114503 86 262 2.0 9.0 0.00 0.00 0.00 77 1005.8
20260506113006 87 209 2.0 9.0 0.00 0.00 0.00 76 1005.8
20260506111503 88 11 3.0 10.0 0.00 0.00 0.00 74 1005.6
20260506110003 89 115 4.0 9.0 0.00 0.00 0.00 71 1005.6
20260506104511 90 59 3.0 13.0 0.00 0.00 0.00 69 1005.6
20260506103009 90 247 2.0 6.0 0.00 0.00 0.00 68 1005.6
20260506101506 90 46 4.0 11.0 0.00 0.00 0.00 69 1005.7
20260506100003 92 115 4.0 12.0 0.00 0.00 0.00 66 1005.7
20260506094503 94 156 3.0 8.0 0.00 0.00 0.00 62 1005.7
20260506093005 95 257 1.0 4.0 0.00 0.00 0.00 57 1005.8
20260506091503 94 255 1.0 4.0 0.00 0.00 0.00 57 1006.1
20260506090003 94 265 1.0 5.0 0.00 0.00 0.00 56 1006.0
20260506084503 94 252 2.0 5.0 0.00 0.00 0.00 59 1006.2
20260506083009 94 125 1.0 7.0 0.00 0.00 0.00 56 1006.4
20260506081506 93 279 1.0 3.0 0.00 0.00 0.00 58 1006.6
20260506073005 92 93 1.0 4.0 0.00 0.00 0.00 60 1007.2
20260506071502 93 253 1.0 4.0 0.00 0.00 0.00 60 1007.5
20260506061503 0 327.0 255.0 0.00 0.00 0.00 1008.2
20260506044504 0 327.0 255.0 0.00 0.00 0.00 1009.2
20260506043008 0 327.0 255.0 0.00 0.00 0.00 1009.3
20260506041501 0 327.0 255.0 0.00 0.00 0.00 1009.5
20260506040002 0 327.0 255.0 0.00 0.00 0.00 1009.3
20260506034502 0 327.0 255.0 0.00 0.00 0.00 1009.6
20260506033005 0 327.0 255.0 0.00 0.00 0.00 1009.7
20260506031502 0 327.0 255.0 0.00 0.00 0.00 1009.5
20260506030003 0 327.0 255.0 0.00 0.00 0.00 1009.5
20260506024507 0 327.0 255.0 0.00 0.00 0.00 1009.4
20260506023004 0 327.0 255.0 0.00 0.00 0.00 1009.4
20260506021504 0 327.0 255.0 0.00 0.00 0.00 1009.4
20260506014559 0 327.0 255.0 0.00 0.00 0.00 1008.8
20260506013001 0 327.0 255.0 0.00 0.00 0.00 1008.4
20260506011600 0 327.0 255.0 0.00 0.00 0.00 1008.2
20260506004603 0 327.0 255.0 0.00 0.00 0.00 1007.7
20260506001620 0 327.0 255.0 0.00 0.00 0.00 1007.7
20260505234613 0 327.0 255.0 0.00 0.00 0.00 1007.9
20260505233001 0 327.0 255.0 0.00 0.00 0.00 1007.8
20260505231559 0 327.0 255.0 0.00 0.00 0.00 1007.9
20260505224558 0 70 0.0 3.0 0.00 0.00 0.00 94 1008.3
20260505223001 76 70 0.0 1.0 0.00 0.00 0.00 93 1008.4
20260505221602 76 70 0.0 2.0 0.00 0.00 0.00 93 1008.3
20260505214604 76 271 0.0 2.0 0.00 0.00 0.00 92 1008.3
20260505213001 76 240 1.0 2.0 0.00 0.00 0.00 93 1008.4
20260505211634 76 244 0.0 3.0 0.00 0.00 0.00 93 1008.6
20260505210059 76 304 0.0 1.0 0.00 0.00 0.00 93 1008.8
20260505204559 76 263 0.0 2.0 0.00 0.00 0.00 93 1008.8
20260505201559 76 295 0.0 5.0 0.00 0.00 0.00 92 1009.1
20260505194558 75 238 1.0 7.0 0.00 0.00 0.00 93 1009.6
20260505193000 75 265 2.0 6.0 0.00 0.00 0.00 93 1009.2
20260505191559 75 309 3.0 7.0 0.00 0.00 0.00 92 1009.0
20260505184600 76 277 0.0 4.0 0.00 0.00 0.00 91 1009.1
20260505183002 75 296 2.0 4.0 0.00 0.00 0.00 92 1009.3
20260505181601 75 329 0.0 3.0 0.00 0.00 0.00 92 1009.4
20260505174559 75 294 3.0 7.0 0.00 0.00 0.00 92 1009.8
20260505173004 75 303 1.0 3.0 0.00 0.00 0.00 92 1009.8
20260505171600 75 184 2.0 5.0 0.00 0.00 0.00 92 1010.0
20260505164603 76 277 1.0 6.0 0.00 0.00 0.00 92 1010.0